| time (UTC) | temp F | wind direction | speed knots | gust knots | rain 1hr in | rain 24hr in | rain mn in | humidity % | barometer mb |
| 20260510200049 | 66 | 350 | 2.6 | 8.7 | 0.00 | 0.12 | 0.00 | 34 | 1019.8 |
| 20260510190017 | 64 | 6 | 2.6 | 9.6 | 0.00 | 0.12 | 0.00 | 38 | 1019.6 |
| 20260510180018 | 63 | 9 | 2.6 | 9.6 | 0.00 | 0.12 | 0.00 | 41 | 1019.8 |
| 20260510170050 | 61 | 358 | 3.5 | 9.6 | 0.00 | 0.12 | 0.00 | 42 | 1020.1 |
| 20260510160018 | 61 | 358 | 3.5 | 10.4 | 0.00 | 0.12 | 0.00 | 45 | 1019.8 |
| 20260510150018 | 59 | 358 | 3.5 | 10.4 | 0.00 | 0.12 | 0.00 | 54 | 1018.9 |
| 20260510140018 | 57 | 4 | 2.6 | 8.7 | 0.00 | 0.12 | 0.00 | 63 | 1018.5 |
| 20260510130018 | 55 | 358 | 1.7 | 0.0 | 0.00 | 0.12 | 0.00 | 80 | 1017.8 |
| 20260510120150 | 54 | 332 | 0.9 | 0.0 | 0.00 | 0.12 | 0.00 | 90 | 1016.7 |
| 20260510110017 | 55 | 338 | 1.7 | 0.0 | 0.00 | 0.12 | 0.00 | 96 | 1015.4 |
| 20260510100017 | 55 | 310 | 0.9 | 0.0 | 0.00 | 0.12 | 0.00 | 97 | 1014.9 |
| 20260510090050 | 56 | 215 | 0.0 | 0.0 | 0.00 | 0.12 | 0.00 | 97 | 1013.9 |
| 20260510080017 | 57 | 204 | 0.0 | 0.0 | 0.00 | 0.12 | 0.00 | 96 | 1013.1 |
| 20260510070018 | 59 | 353 | 1.7 | 0.0 | 0.00 | 0.12 | 0.00 | 94 | 1012.9 |
| 20260510060017 | 60 | 35 | 1.7 | 0.0 | 0.04 | 0.12 | 0.00 | 94 | 1012.1 |
| 20260510050017 | 60 | 1 | 1.7 | 9.6 | 0.04 | 0.07 | 0.00 | 92 | 1012.4 |
| 20260510040018 | 63 | 344 | 5.2 | 26.9 | 0.03 | 0.03 | 0.00 | 80 | 1012.1 |
| 20260510030017 | 67 | 170 | 0.9 | 0.0 | 0.00 | 0.00 | 0.00 | 57 | 1009.7 |
| 20260510020019 | 68 | 161 | 0.9 | 0.0 | 0.00 | 0.00 | 0.00 | 54 | 1008.8 |
| 20260510010017 | 73 | 158 | 0.0 | 0.0 | 0.00 | 0.00 | 0.00 | 41 | 1008.4 |
| 20260510000018 | 78 | 302 | 0.9 | 0.0 | 0.00 | 0.00 | 0.00 | 32 | 1008.2 |
| 20260509230018 | 79 | 318 | 1.7 | 9.6 | 0.00 | 0.32 | 0.00 | 32 | 1008.0 |
| 20260509220049 | 79 | 325 | 2.6 | 14.8 | 0.00 | 0.32 | 0.00 | 36 | 1008.1 |
| 20260509210019 | 79 | 325 | 2.6 | 9.6 | 0.00 | 0.32 | 0.00 | 37 | 1008.5 |